Regional Weather Roundup
Issued by NWS

Home | Current Version | Previous Version | Text Only | Print | Product List | Glossary Off
Versions: 1 2 3 4 5 6 7 8 9 10 11 12 13 14 15 16 17 18 19 20 21 22 23 24 25 26 27 28 29 30 31 32 33 34 35 36 37 38 39 40 41 42 43 44 45 46 47 48 49

000
ASUS45 KTFX 301210
RWRMT
MONTANA REGIONAL WEATHER ROUNDUP
NATIONAL WEATHER SERVICE GREAT FALLS MT
600 AM MDT TUE JUN 30 2015

NOTE: "FAIR" INDICATES FEW OR NO CLOUDS BELOW 12000 FEET WITH NO
SIGNIFICANT WEATHER AND/OR OBSTRUCTIONS TO VISIBILITY.

MTZ001>007-043-301300-
WEST OF THE DIVIDE

CITY           SKY/WX    TMP DP  RH WIND       PRES   REMARKS
KALISPELL      SUNNY     55  51  86 CALM      30.02R
MISSOULA       CLEAR     63  60  90 CALM      30.08R
BUTTE          PTCLDY    57  55  93 SW5       30.22R
MULLAN PASS    CLEAR     61  51  70 NW3       30.21S
DEER LODGE       N/A     57  57 100 W3        30.20R
EUREKA           N/A     59  57  94 CALM      30.06
HAMILTON         N/A     64  61  88 S12       30.10R
PLAINS           N/A     61  54  77 CALM      30.03R
RONAN            N/A     61  56  83 CALM      30.07R
THOMPSON FALLS   N/A     59  57  92 CALM      30.07R
$$

MTZ008-052>055-301300-
SOUTHWEST MONTANA

CITY           SKY/WX    TMP DP  RH WIND       PRES   REMARKS
BOZEMAN        CLOUDY    61  57  87 S10       30.13F
DILLON         PTCLDY    57  54  89 SW6       30.18S
W YELLOWSTONE  CLOUDY    55  54  94 NW10      30.26F
$$

MTZ009-010-012-014-046-048-049-054-301300-
EAST SLOPES AND CENTRAL MONTANA

CITY           SKY/WX    TMP DP  RH WIND       PRES   REMARKS
CUT BANK       CLEAR     62  55  77 W13       29.98S
GREAT FALLS    CLEAR     66  57  72 SW12      29.99S
MALMSTROM AFB  CLEAR     68  57  69 SW12      29.99S
HELENA         PTCLDY    64  61  90 CALM      30.08R
CONRAD           N/A     59  59 100 W6        30.01F
$$

MTZ011-013-016-021-045-047-050-051-301300-
NORTH CENTRAL MONTANA

CITY           SKY/WX    TMP DP  RH WIND       PRES   REMARKS
HAVRE          PTCLDY    68  60  75 SW15      29.90S
LEWISTOWN      CLOUDY    66  56  70 E5        30.02F
CHINOOK          N/A     64  46  52 E5        29.89F VSB 1
FORT BENTON      N/A     66  61  82 CALM      29.97R
$$

MTZ017>020-022>027-061-062-301300-
NORTHEAST MONTANA

CITY           SKY/WX    TMP DP  RH WIND       PRES   REMARKS
JORDAN           N/A     68  49  50 E3        29.92S
SIDNEY         CLOUDY    70  57  64 N3        29.93S
WOLF POINT     HAZE      66  54  65 E6        29.92S VSB 3/4
MALTA            N/A     64  47  54 CALM      29.88F
PLENTYWOOD       N/A     63  55  77 N7        29.98R VSB 1
POPLAR           N/A     64  55  72 NE7       29.93S
SCOBEY           N/A     59  50  72 N8        29.95S
$$

MTZ028>42-056>058-301300-
SOUTHCENTRAL AND SOUTHEAST MONTANA

CITY           SKY/WX    TMP DP  RH WIND       PRES   REMARKS
BAKER          CLOUDY    69  59  70 E10       29.94F
BILLINGS       PTCLDY    67  58  72 SW16      30.00F
LIVINGSTON     LGT RAIN  64  56  75 SW8       30.15R
MILES CITY     HAZE      70  56  61 N9        29.91S VSB 1
BIG TIMBER       N/A     72  54  53 W20G30    30.09S
EKALAKA          N/A     72  52  49 SE5       29.94F
FORSYTH          N/A     70  55  60 S3        29.91S
LAUREL           N/A     62  53  72 CALM      30.00S
ROUNDUP          N/A     67  56  67 S6        29.91S
$$

REGIONAL REPORTS...DAKOTAS

CITY           SKY/WX    TMP DP  RH WIND       PRES   REMARKS
WILLISTON      LGT RAIN  67  61  81 N10       29.95R
MINOT          CLOUDY    64  61  90 E8        29.93S
DICKINSON      CLOUDY    67  60  78 SE7       29.94S
BEACH          FAIR      66  64  94 E8        29.95S
CROSBY         FOG       61  61 100 CALM      29.96R VSB 1
BISMARCK       CLOUDY    67  63  87 NE9       29.95R
GRAND FORKS    CLOUDY    57  56  96 NE5       29.94S FOG
FARGO          SUNNY     58  56  93 CALM      29.95R FOG
BUFFALO SD       N/A     65  58  78 NE10      29.89S
RAPID CITY     PTCLDY    66  56  70 NW5       29.95F
$$

REGIONAL REPORTS...WYOMING/IDAHO/WASHINGTON

CITY           SKY/WX    TMP DP  RH WIND       PRES   REMARKS
GILLETTE       CLOUDY    65  56  72 S5        30.02F
SHERIDAN       CLOUDY    63  55  75 SW5       30.00S
BUFFALO WY     CLOUDY    65  51  60 NW5       30.07S
CODY           CLOUDY    72  54  53 NE8       30.09F
YELLOWSTONE LA   N/A     55  50  83 CALM      30.37F
IDAHO FALLS    MOCLDY    60  57  89 NW7       30.12S
SALMON         PTCLDY    61  57  88 CALM      30.15R
BOISE          PTCLDY    75  57  53 SW5       29.99R
SPOKANE        PTCLDY    68  56  65 N5        30.02R
$$

REGIONAL REPORTS...ALBERTA

CITY           SKY/WX    TMP DP  RH WIND       PRES   REMARKS
EDMONTON       LGT RAIN  59  54  82 S3        29.98R
CALGARY        MOCLDY    57  55  94 N5        29.95S
LETHBRIDGE     PTCLDY    59  55  88 SW14      29.92R
MEDICINE HAT   CLEAR     59  55  88 N3        29.87R FOG
WATERTON GATE    N/A     64  46  52 SW14        N/A
CARDSTON         N/A     59  52  77 SW8         N/A
ONEFOUR          N/A     61  39  44 NE10        N/A
$$

REGIONAL REPORTS...SASKATCHEWAN

CITY           SKY/WX    TMP DP  RH WIND       PRES   REMARKS
SWIFT CURRENT  HAZE      59  54  82 SW10      30.01R VSB 3/4
REGINA         LGT RAIN  61  59  94 N6        29.97S VSB 3/4
SASKATOON      SMOKE     63  57  82 S2        29.97S VSB 3/4
CYPRESS HILLS    N/A     59  39  47 SE9         N/A
VAL MARIE        N/A     52  48  87 E7          N/A
ROCKGLEN         N/A     59  52  77 NE2         N/A
ASSINIBOIA       N/A     61  61 100 S5          N/A
$$


USA.gov is the U.S. government's official web portal to all federal, state and local government web resources and services.